一网星座-0043星 (ONEWEB-0043 )

导读

ONEWEB-0043是英国OneWeb星座的成员卫星,于2020年2月6日发射,是OneWeb构建全球低轨卫星互联网星座的组成部分。OneWeb计划部署数百颗低轨卫星,实现全球高速互联网覆盖,尤其服务偏远地区网络接入。该卫星运行在近地轨道,通过星群组网提供宽带互联服务。不过OneWeb曾因资金问题陷入破产重组,后完成破产保护程序,后续继续推进星座组网计划。ONEWEB-0043作为组网卫星,为OneWeb初步构建低轨通信网络发挥了支撑作用。

基本信息
目录编号:
45149
目录名称:
ONEWEB-0043
国际标识:
2020-008U
轨道中心:
EARTH
卫星名称:
一网星座-0043星
卫星全名:
一网星座-0043星 (ONEWEB-0043 )
卫星状态:
在轨 (已飞行2409 天)
发射日期:
2020-02-06 UTC
国别 :
英国 (GB)
星等 :
--
该卫星已列入 空间交会检测服务 Space Conjunction Data Service (SCDS) ,当前飞行风险评估等级: 无高风险
轨道信息
数据来源 国际轨道数据 AOE轨道数据
星历时间 2026-09-11T01:22:27+0800
17小时前
查看轨道信息
2026-09-06T06:00:00+0800
5天前
查看轨道信息
半长轴 7599.85km 7599.871km
偏心率 0.0002192 0.0001992
轨道倾角 87.890° 87.887°
近地点辐角 108.106° 109.792°
升交点赤经 19.236° 20.190°
平近点角 252.031° 265.754°
近地点 1220.047km 1220.22km
远地点 1223.379km 1223.248km
周期 109.892分钟 109.893分钟
每日圈数 13.103739 13.103687
详细信息
平衡模式:
三轴稳定
覆盖范围:
全球
运营商:
一网卫星公司
运营商所在国:
英国
制造商(研发单位):
一网卫星公司
制造商所在国:
英国
使用方式:
暂无
卫星简介
OneWeb卫星网络由648颗重约125公斤的微型卫星组成,运行在1200公里的轨道上。 每颗卫星都能够提供至少每秒8千兆位的吞吐量,以使用其高吞吐量的Ku频段有效载荷为家庭和移动平台提供互联网接入。该卫星仍在工作。
2D轨道图
3D轨道图
轨道高度分析图
轨道倾角分析图
轨道综合分析图
查看轨道综合分析图
与全量物体交会距离演化趋势
与全量物体交会风险概率演化趋势